Date String (YYYY-MM-DD hh:mm:ss) UTC,Instrument flags,Ambient pressure (hPa),Sample flow (lpm),Bypass flow (lpm),Sample temperature (°C),Ambient temperature (°C),ASC tube jacket temperature (°C),LED temperature (°C),Box temperature (°C),Sample RH (%),Span deviation,Mass concentration (μg/m³),Mass concentration (μg/m³),Mass concentration (μg/m³)
DateTimeUTC,F1_M11,P_M11,Q1_M11,Q2_M11,T1_M11,T2_M11,T3_M11,T4_M11,T5_M11,U1_M11,ZSPAN_M11,X0_M11,X2_M11,X1_M11
2023-04-06 06:00:00,,0833.2,5.01,0.00,22.4,21.7,00.0,30.8,24.3,12.6,0000.0,0006.77,0003.56,0003.29
2023-04-06 06:01:00,,0833.2,5.00,0.00,22.6,22.6,00.0,30.8,24.6,12.5,0000.0,0006.89,0003.62,0003.31
2023-04-06 06:02:00,,0833.2,5.00,0.00,22.7,22.7,00.0,30.8,24.5,12.3,0000.0,0007.10,0003.66,0003.32
2023-04-06 06:03:00,,0833.2,4.98,0.00,22.6,22.4,00.0,30.9,24.3,12.3,0000.0,0006.34,0003.68,0003.33
2023-04-06 06:04:00,,0833.2,5.00,0.00,22.6,22.0,00.0,30.9,24.2,12.2,0000.0,0006.88,0003.70,0003.33
2023-04-06 06:05:00,,0833.2,5.01,0.00,22.6,21.7,00.0,30.9,24.1,12.3,0000.0,0006.86,0003.69,0003.33
2023-04-06 06:06:00,,0833.2,5.00,0.00,22.5,21.4,00.0,30.9,24.0,12.3,0000.0,0006.85,0003.69,0003.33
2023-04-06 06:07:00,,0833.2,5.00,0.00,22.5,21.1,00.0,30.9,23.9,12.2,0000.0,0006.90,0003.67,0003.31
2023-04-06 06:08:00,,0833.2,4.99,0.00,22.5,20.9,00.0,30.9,23.9,12.3,0000.0,0007.22,0003.64,0003.30
2023-04-06 06:09:00,,0833.2,5.01,0.00,22.4,20.7,00.0,30.9,23.9,12.2,0000.0,0007.17,0003.64,0003.30
2023-04-06 06:10:00,,0833.2,5.00,0.00,22.4,20.6,00.0,30.9,23.8,12.2,0000.0,0007.18,0003.63,0003.29
2023-04-06 06:11:00,,0833.2,4.99,0.00,22.4,20.5,00.0,30.8,23.7,12.3,0000.0,0007.21,0003.64,0003.28
2023-04-06 06:12:00,,0833.2,5.00,0.00,22.3,20.5,00.0,30.8,23.8,12.2,0000.0,0007.21,0003.62,0003.28
2023-04-06 06:13:00,,0833.2,5.02,0.00,22.4,21.4,00.0,30.7,24.2,12.2,0000.0,0008.26,0003.62,0003.29
2023-04-06 06:14:00,,0833.2,5.00,0.00,22.6,22.4,00.0,30.7,24.5,12.2,0000.0,0008.22,0003.60,0003.29
2023-04-06 06:15:00,,0833.2,4.99,0.00,22.7,22.8,00.0,30.8,24.5,12.2,0000.0,0008.13,0003.58,0003.28
2023-04-06 06:16:00,,0833.2,4.99,0.00,22.6,22.5,00.0,30.9,24.3,12.1,0000.0,0008.08,0003.56,0003.28
2023-04-06 06:17:00,,0833.2,5.01,0.00,22.6,22.1,00.0,30.9,24.1,12.0,0000.0,0008.09,0003.56,0003.28
2023-04-06 06:18:00,,0833.1,5.00,0.00,22.5,21.6,00.0,30.9,24.0,11.8,0000.0,0008.09,0003.56,0003.26
2023-04-06 06:19:00,,0833.2,4.99,0.00,22.5,21.2,00.0,30.9,23.9,11.5,0000.0,0008.53,0003.54,0003.24
2023-04-06 06:20:00,,0833.2,4.99,0.00,22.4,20.9,00.0,30.9,23.8,10.6,0000.0,0008.70,0003.52,0003.20
2023-04-06 06:21:00,,0833.1,4.99,0.00,22.4,20.6,00.0,30.8,23.7,10.3,0000.0,0008.69,0003.47,0003.17
2023-04-06 06:22:00,,0833.2,5.00,0.00,22.3,20.4,00.0,30.8,23.6,10.2,0000.0,0008.70,0003.44,0003.14
2023-04-06 06:23:00,,0833.2,5.01,0.00,22.3,20.3,00.0,30.8,23.6,10.1,0000.0,0009.40,0003.40,0003.10
2023-04-06 06:24:00,,0833.2,5.00,0.00,22.2,20.2,00.0,30.8,23.5,10.2,0000.0,0009.30,0003.35,0003.03
2023-04-06 06:25:00,,0833.2,5.01,0.00,22.3,20.9,00.0,30.7,23.9,10.0,0000.0,0009.04,0003.32,0002.95
2023-04-06 06:26:00,,0833.3,5.00,0.00,22.4,22.1,00.0,30.7,24.3,09.4,0000.0,0008.91,0003.29,0002.87
2023-04-06 06:27:00,,0833.2,5.00,0.00,22.5,22.8,00.0,30.7,24.5,08.7,0000.0,0008.74,0003.23,0002.78
2023-04-06 06:28:00,,0833.3,4.99,0.00,22.6,22.6,00.0,30.8,24.3,08.3,0000.0,0008.66,0003.17,0002.67
2023-04-06 06:29:00,,0833.2,4.99,0.00,22.5,22.1,00.0,30.8,24.1,08.1,0000.0,0008.63,0003.11,0002.59
2023-04-06 06:30:00,,0833.2,5.01,0.00,22.5,21.8,00.0,30.8,24.0,08.3,0000.0,0007.92,0003.05,0002.53
2023-04-06 06:31:00,,0833.3,5.00,0.00,22.4,21.4,00.0,30.8,23.9,08.4,0000.0,0007.86,0002.98,0002.48
2023-04-06 06:32:00,,0833.2,5.00,0.00,22.4,21.2,00.0,30.8,23.8,08.4,0000.0,0007.96,0002.92,0002.42
2023-04-06 06:33:00,,0833.2,4.99,0.00,22.4,20.9,00.0,30.8,23.7,08.3,0000.0,0007.84,0002.84,0002.38
2023-04-06 06:34:00,,0833.3,5.00,0.00,22.3,20.7,00.0,30.8,23.7,08.3,0000.0,0006.90,0002.79,0002.36
2023-04-06 06:35:00,,0833.2,5.02,0.00,22.3,20.5,00.0,30.8,23.6,08.2,0000.0,0005.48,0002.79,0002.34
2023-04-06 06:36:00,,0833.2,4.99,0.00,22.3,20.4,00.0,30.7,23.6,08.2,0000.0,0006.14,0002.84,0002.34
2023-04-06 06:37:00,,0833.2,4.99,0.00,22.3,20.8,00.0,30.7,23.8,08.1,0000.0,0005.65,0002.79,0002.33
2023-04-06 06:38:00,,0833.2,4.99,0.00,22.4,21.9,00.0,30.6,24.2,08.0,0000.0,0005.62,0002.80,0002.35
2023-04-06 06:39:00,,0833.3,5.00,0.00,22.5,22.8,00.0,30.6,24.5,08.0,0000.0,0005.73,0002.85,0002.37
2023-04-06 06:40:00,,0833.2,4.99,0.00,22.6,22.8,00.0,30.7,24.4,08.0,0000.0,0005.81,0002.89,0002.41
2023-04-06 06:41:00,,0833.2,4.98,0.00,22.6,22.4,00.0,30.8,24.2,08.1,0000.0,0005.78,0002.93,0002.44
2023-04-06 06:42:00,,0833.2,5.01,0.00,22.5,22.0,00.0,30.8,24.1,08.2,0000.0,0005.34,0002.91,0002.48
2023-04-06 06:43:00,,0833.2,5.00,0.00,22.5,21.6,00.0,30.8,24.0,08.2,0000.0,0004.94,0002.92,0002.52
2023-04-06 06:44:00,,0833.2,5.00,0.00,22.4,21.3,00.0,30.8,23.9,08.2,0000.0,0004.92,0002.94,0002.56
2023-04-06 06:45:00,,0833.2,5.00,0.00,22.4,21.0,00.0,30.8,23.8,08.2,0000.0,0004.87,0002.95,0002.57
2023-04-06 06:46:00,,0833.3,5.01,0.00,22.4,20.8,00.0,30.8,23.8,08.2,0000.0,0004.87,0002.95,0002.59
2023-04-06 06:47:00,,0833.2,5.00,0.00,22.3,20.6,00.0,30.8,23.7,08.2,0000.0,0003.82,0002.90,0002.61
2023-04-06 06:48:00,,0833.2,4.99,0.00,22.3,20.4,00.0,30.8,23.6,08.3,0000.0,0003.92,0002.96,0002.64
2023-04-06 06:49:00,,0833.3,4.99,0.00,22.3,20.3,00.0,30.7,23.6,08.2,0000.0,0004.19,0003.01,0002.67
2023-04-06 06:50:00,,0833.3,5.02,0.00,22.3,21.0,00.0,30.7,24.0,08.2,0000.0,0004.14,0003.04,0002.70
2023-04-06 06:51:00,,0833.3,5.00,0.00,22.4,22.1,00.0,30.7,24.3,08.3,0000.0,0004.07,0003.06,0002.73
2023-04-06 06:52:00,,0833.3,5.00,0.00,22.6,23.0,00.0,30.7,24.6,08.3,0000.0,0004.85,0003.08,0002.77
2023-04-06 06:53:00,,0833.3,4.98,0.00,22.6,22.8,00.0,30.8,24.4,08.3,0000.0,0005.72,0003.14,0002.80
2023-04-06 06:54:00,,0833.2,5.00,0.00,22.6,22.5,00.0,30.8,24.2,08.5,0000.0,0006.51,0003.18,0002.84
2023-04-06 06:55:00,,0833.2,5.01,0.00,22.6,22.1,00.0,30.8,24.1,08.6,0000.0,0006.60,0003.18,0002.86
2023-04-06 06:56:00,,0833.2,5.00,0.00,22.5,21.8,00.0,30.8,24.1,08.6,0000.0,0006.64,0003.20,0002.89
2023-04-06 06:57:00,,0833.2,4.99,0.00,22.5,21.4,00.0,30.8,24.0,08.6,0000.0,0006.61,0003.22,0002.94
2023-04-06 06:58:00,,0833.2,5.01,0.00,22.5,21.2,00.0,30.8,24.0,08.5,0000.0,0006.68,0003.25,0002.99
2023-04-06 06:59:00,,0833.2,5.01,0.00,22.5,21.0,00.0,30.8,23.9,08.5,0000.0,0006.59,0003.28,0003.06
